This demonstration page uses our WeatherBlox Daily Observations layout. Learn more.

Left ArrowRight Arrow

36.19886, -115.1175

Hourly Observations for February 28, 2022

Temp ( °F °C ) Dew Point ( °F °C ) Humidity (%) Winds ( mph kmh ) Pressure ( in mb ) Visibility ( mi km ) Precip ( " mm )
12:53 am 00:53 Clear 46 7.8 5 -15 18 18 NW 7 11 30.37 1029 10 16 0.00 0.00
1:53 am 01:53 Clear 49 9.4 3 -16.1 15 15 N 7 11 30.35 1028 10 16 0.00 0.00
2:53 am 02:53 Clear 48 8.9 3 -16.1 15 15 NNE 6 9 30.36 1028 10 16 0.00 0.00
3:53 am 03:53 Clear 47 8.3 4 -15.6 17 17 NW 8 13 30.34 1028 10 16 0.00 0.00
4:53 am 04:53 Clear 45 7.2 4 -15.6 18 18 WNW 3 6 30.35 1028 10 16 0.00 0.00
5:53 am 05:53 Clear 41 5 5 -15 22 22 NW 5 7 30.36 1028 10 16 0.00 0.00
6:53 am 06:53 Sunny 47 8.3 5 -15 18 18 Calm 30.37 1028 10 16 0.00 0.00
7:53 am 07:53 Sunny 51 10.6 6 -14.4 16 16 Calm 30.38 1029 10 16 0.00 0.00
8:53 am 08:53 Sunny 56 13.3 7 -13.9 14 14 SSE 3 6 30.38 1029 10 16 0.00 0.00
9:53 am 09:53 Sunny 63 17.2 7 -13.9 11 11 NNE 9 15 30.37 1028 10 16 0.00 0.00
10:53 am 10:53 Sunny 63 17.2 7 -13.9 11 11 SE 7 11 30.35 1028 10 16 0.00 0.00
11:53 am 11:53 Sunny 68 20 8 -13.3 9 9 E 6 9 30.30 1026 10 16 0.00 0.00
12:53 pm 12:53 Sunny 70 21.1 8 -13.3 9 9 SE 3 6 30.26 1025 10 16 0.00 0.00
1:53 pm 13:53 Sunny 73 22.8 7 -13.9 7 7 E 7 11 30.22 1023 10 16 0.00 0.00
2:53 pm 14:53 Sunny 74 23.3 7 -13.9 7 7 W 5 7 30.19 1022 10 16 0.00 0.00
3:53 pm 15:53 Sunny 74 23.3 8 -13.3 8 8 WSW 3 6 30.18 1022 10 16 0.00 0.00
4:53 pm 16:53 Sunny 74 23.3 8 -13.3 8 8 E 9 15 30.18 1022 10 16 0.00 0.00
5:53 pm 17:53 Clear 67 19.4 5 -15 8 8 Calm 30.20 1023 10 16 0.00 0.00
6:53 pm 18:53 Clear 66 18.9 10 -12.2 11 11 W 6 9 30.20 1023 10 16 0.00 0.00
7:53 pm 19:53 Clear 59 15 12 -11.1 15 15 WNW 7 11 30.21 1023 10 16 0.00 0.00
8:53 pm 20:53 Clear 57 13.9 13 -10.6 17 17 Calm 30.22 1023 10 16 0.00 0.00
9:53 pm 21:53 Clear 57 13.9 12 -11.1 17 17 SW 3 6 30.22 1023 10 16 0.00 0.00
10:53 pm 22:53 Clear 53 11.7 13 -10.6 20 20 WNW 7 11 30.22 1024 10 16 0.00 0.00
11:53 pm 23:53 Clear 51 10.6 11 -11.7 20 20 NW 6 9 30.22 1023 10 16 0.00 0.00

Powered by AerisWeather